EW7906 Weather Reports


time (UTC)temp
F
wind
direction
speed
knots
gust
knots
rain 1hr
in
rain 24hr
in
rain mn
in
humidity
%
barometer
mb
20260902040809 146 149 0.0 0.0 0.00 0.00 0.00 100 1014.9
20260902040245 146 149 0.0 4.3 0.00 0.00 0.00 100 1014.9
20260902035723 146 149 0.0 4.3 0.00 0.00 0.00 100 1014.8
20260902035202 146 168 0.0 0.0 0.00 0.00 0.00 100 1014.8
20260902034638 146 168 0.0 0.0 0.00 0.00 0.00 100 1014.7
20260902034117 146 168 0.0 0.0 0.00 0.00 0.00 100 1014.6
20260902033604 146 168 0.0 2.6 0.00 0.00 0.00 100 1014.5
20260902033057 146 168 0.0 2.6 0.00 0.00 0.00 100 1014.5
20260902032557 146 120 0.0 0.0 0.00 0.00 0.00 100 1014.3
20260902032034 146 120 0.0 0.0 0.00 0.00 0.00 100 1014.4
20260902031526 146 120 0.0 0.0 0.00 0.00 0.00 100 1014.3
20260902031018 146 120 0.0 0.0 0.00 0.00 0.00 100 1014.2
20260902030515 146 120 0.0 0.0 0.00 0.00 0.00 100 1014.0
20260902025954 146 120 0.0 0.0 0.00 0.00 0.00 100 1014.0
20260902025431 146 120 0.0 0.0 0.00 0.00 0.00 100 1014.0
20260902024910 146 120 0.0 2.6 0.00 0.00 0.00 100 1014.0
20260902024340 146 120 0.0 2.6 0.00 0.00 0.00 100 1013.9
20260902023836 146 129 0.0 5.2 0.00 0.00 0.00 100 1013.6
20260902023327 146 144 0.0 4.3 0.00 0.00 0.00 100 1013.6
20260902022827 146 170 0.0 3.5 0.00 0.00 0.00 100 1013.5
20260902022306 146 181 0.0 5.2 0.00 0.00 0.00 100 1013.3
20260902021805 146 157 0.9 7.0 0.00 0.00 0.00 100 1013.3
20260902021302 146 120 0.0 7.0 0.00 0.00 0.00 100 1013.2
20260902020756 147 154 1.7 4.3 0.00 0.00 0.00 100 1013.2
20260902020257 147 137 0.9 4.3 0.00 0.00 0.00 100 1013.2
20260902015729 147 111 0.0 7.0 0.00 0.00 0.00 100 1013.1
20260902015217 147 171 3.5 7.0 0.00 0.00 0.00 100 1013.0
20260902014716 147 135 0.0 7.0 0.00 0.00 0.00 100 1013.0
20260902014216 147 144 0.0 7.0 0.00 0.00 0.00 100 1012.8
20260902013705 147 165 0.0 7.0 0.00 0.00 0.00 100 1012.6
20260902013156 147 136 0.0 7.0 0.00 0.00 0.00 100 1012.6
20260902012655 147 130 3.5 6.1 0.00 0.00 0.00 100 1012.6
20260902012427 147 130 0.0 6.1 0.00 0.00 0.00 100 1012.4
20260902011648 147 119 1.7 5.2 0.00 0.00 0.00 100 1012.4
20260902011147 147 97 0.9 4.3 0.00 0.00 0.00 100 1012.4
20260902010642 147 94 0.0 5.2 0.00 0.00 0.00 100 1012.3
20260902010411 147 50 1.7 5.2 0.00 0.00 0.00 100 1012.3
20260902005858 148 112 0.0 4.3 0.00 0.00 0.00 100 1012.3
20260902005120 148 150 0.9 7.8 0.00 0.00 0.00 100 1012.3
20260902004838 148 151 0.0 7.8 0.00 0.00 0.00 100 1012.4
20260902004107 148 140 0.0 7.0 0.00 0.00 0.00 100 1012.3
20260902003834 148 113 2.6 7.0 0.00 0.00 0.00 100 1012.4
20260902003558 148 165 2.6 5.2 0.00 0.00 0.00 100 1012.5
20260902002557 148 151 0.0 7.8 0.00 0.00 0.00 100 1012.4
20260902002051 148 151 0.0 7.8 0.00 0.00 0.00 100 1012.4
20260902001549 148 116 1.7 7.8 0.00 0.00 0.00 100 1012.4
20260902001049 148 120 0.0 5.2 0.00 0.00 0.00 100 1012.4
20260902000542 148 70 0.0 5.2 0.00 0.00 0.00 100 1012.4
20260902000029 148 157 0.0 5.2 0.00 0.00 0.00 100 1012.4
20260901235529 148 132 0.0 5.2 0.00 0.00 0.00 100 1012.4
20260901235026 148 104 1.7 5.2 0.00 0.00 0.00 100 1012.4
20260901234526 148 137 0.9 7.0 0.00 0.00 0.00 100 1012.4
20260901234027 149 74 0.0 7.0 0.00 0.00 0.00 100 1012.3
20260901233516 149 99 2.6 7.0 0.00 0.00 0.00 100 1012.2
20260901233015 149 144 1.7 7.8 0.00 0.00 0.00 100 1012.3
20260901232740 149 122 0.0 8.7 0.00 0.00 0.00 100 1012.3
20260901232006 149 77 3.5 8.7 0.00 0.00 0.00 100 1012.3
20260901231505 150 5 3.5 7.8 0.00 0.00 0.00 100 1012.3
20260901231235 149 165 3.5 6.1 0.00 0.00 0.00 100 1012.2
20260901230504 150 163 0.0 5.2 0.00 0.00 0.00 100 1012.2
20260901230004 150 85 0.0 5.2 0.00 0.00 0.00 100 1012.3
20260901225458 150 150 0.9 7.0 0.00 0.00 0.00 100 1012.3
20260901225228 150 161 5.2 7.0 0.00 0.00 0.00 100 1012.2
20260901224456 149 157 1.7 6.1 0.00 0.00 0.00 100 1012.2
20260901223956 149 9 0.0 7.8 0.00 0.00 0.00 100 1012.2
20260901223456 149 120 0.9 7.8 0.00 0.00 0.00 100 1012.3
20260901222949 149 70 0.9 4.3 0.00 0.00 0.00 100 1012.3
20260901222444 149 205 0.0 3.5 0.00 0.00 0.00 100 1012.3
20260901222212 149 98 0.0 0.0 0.00 0.00 0.00 100 1012.4
20260901221418 149 98 0.0 0.0 0.00 0.00 0.00 100 1012.4
20260901221126 149 98 0.0 0.0 0.00 0.00 0.00 100 1012.4
20260901220343 149 98 0.0 0.0 0.00 0.00 0.00 100 1012.4
20260901215818 150 98 0.0 2.6 0.00 0.00 0.00 100 1012.4
20260901215537 150 81 0.0 7.8 0.00 0.00 0.00 100 1012.4
20260901214756 150 81 0.0 7.8 0.00 0.00 0.00 100 1012.4
20260901214528 150 151 0.9 5.2 0.00 0.00 0.00 100 1012.4
20260901213752 151 127 2.6 5.2 0.00 0.00 0.00 100 1012.5
20260901213239 150 26 1.7 5.2 0.00 0.00 0.00 100 1012.4
20260901212737 149 118 0.0 2.6 0.00 0.00 0.00 100 1012.4
20260901212214 149 118 0.0 2.6 0.00 0.00 0.00 100 1012.5
20260901211652 149 120 0.0 5.2 0.00 0.00 0.00 100 1012.6
20260901211421 150 101 0.0 5.2 0.00 0.00 0.00 100 1012.8
20260901210644 149 149 3.5 5.2 0.00 0.00 0.00 100 1012.9
20260901210145 149 112 0.0 0.0 0.00 0.00 0.00 100 1012.9
20260901205614 148 112 0.0 5.2 0.00 0.00 0.00 100 1013.0
20260901205103 148 112 0.0 5.2 0.00 0.00 0.00 100 1013.1
20260901204555 149 108 0.0 7.0 0.00 0.00 0.00 100 1013.2
20260901204057 149 139 0.9 7.0 0.00 0.00 0.00 100 1013.3
20260901204048 150 39 0.0 6.1 0.00 0.00 0.00 100 1013.3
20260901203313 150 1 3.5 6.1 0.00 0.00 0.00 100 1013.4
20260901202541 149 112 0.0 4.3 0.00 0.00 0.00 100 1013.4
20260901202040 149 52 0.0 7.0 0.00 0.00 0.00 100 1013.5
20260901201530 149 102 2.6 7.0 0.00 0.00 0.00 100 1013.6
20260901201015 150 139 0.9 8.7 0.00 0.00 0.00 100 1013.8
20260901200514 150 73 2.6 8.7 0.00 0.00 0.00 100 1013.8
20260901200011 150 157 1.7 6.1 0.00 0.00 0.00 100 1013.8
20260901195508 149 143 4.3 6.1 0.00 0.00 0.00 100 1013.9
20260901195006 149 61 0.0 2.6 0.00 0.00 0.00 100 1014.0
20260901194506 150 126 0.0 6.1 0.00 0.00 0.00 100 1014.1
20260901193957 150 126 0.9 6.1 0.00 0.00 0.00 100 1014.1
20260901193456 149 95 0.0 5.2 0.00 0.00 0.00 100 1014.2
20260901193227 149 78 1.7 5.2 0.00 0.00 0.00 100 1014.3
20260901192727 148 101 1.7 2.6 0.00 0.00 0.00 100 1014.4
20260901192224 149 140 0.0 7.0 0.00 0.00 0.00 100 1014.4
20260901191452 148 140 2.6 7.0 0.00 0.00 0.00 100 1014.5
20260901190946 150 150 1.7 7.0 0.00 0.00 0.00 100 1014.5
20260901190445 149 167 3.5 7.0 0.00 0.00 0.00 100 1014.6
20260901185943 149 355 0.9 5.2 0.00 0.00 0.00 100 1014.6
20260901185656 149 18 1.7 7.0 0.00 0.00 0.00 100 1014.7
20260901185133 149 167 0.0 5.2 0.00 0.00 0.00 100 1014.9
20260901184402 148 81 0.0 5.2 0.00 0.00 0.00 100 1015.0
20260901183857 148 147 2.6 5.2 0.00 0.00 0.00 100 1015.1
20260901183357 149 14 0.9 5.2 0.00 0.00 0.00 100 1015.1
20260901182857 148 149 0.0 5.2 0.00 0.00 0.00 100 1015.2
20260901182355 148 67 1.7 5.2 0.00 0.00 0.00 100 1015.4
20260901181856 149 120 0.0 5.2 0.00 0.00 0.00 100 1015.4
20260901181357 149 70 0.0 5.2 0.00 0.00 0.00 100 1015.6
20260901180844 149 129 0.9 5.2 0.00 0.00 0.00 100 1015.7
20260901180343 149 135 1.7 5.2 0.00 0.00 0.00 100 1015.7
20260901175838 149 118 0.0 5.2 0.00 0.00 0.00 100 1015.8
20260901175327 148 142 0.0 7.0 0.00 0.00 0.00 100 1015.9
20260901174827 149 133 0.9 7.0 0.00 0.00 0.00 100 1016.0
20260901174325 149 109 0.9 7.0 0.00 0.00 0.00 100 1016.0
20260901173820 149 81 1.7 7.0 0.00 0.00 0.00 100 1016.2
20260901173317 149 73 1.7 7.0 0.00 0.00 0.00 100 1016.3
20260901172808 148 113 0.9 5.2 0.00 0.00 0.00 100 1016.4
20260901172308 148 143 0.0 5.2 0.00 0.00 0.00 100 1016.4
20260901172027 149 149 0.0 6.1 0.00 0.00 0.00 100 1016.5
20260901171256 149 66 0.0 7.0 0.00 0.00 0.00 100 1016.5
20260901170757 149 142 0.0 7.0 0.00 0.00 0.00 100 1016.6
20260901170256 149 25 1.7 6.1 0.00 0.00 0.00 100 1016.6
20260901165749 148 122 0.0 4.3 0.00 0.00 0.00 100 1016.7
20260901165242 148 116 0.9 5.2 0.00 0.00 0.00 100 1016.8
20260901164718 148 150 2.6 5.2 0.00 0.00 0.00 100 1016.9
20260901164218 148 150 0.0 4.3 0.00 0.00 0.00 100 1016.8
20260901163939 149 150 2.6 6.1 0.00 0.00 0.00 100 1016.8
20260901163208 148 198 0.0 6.1 0.00 0.00 0.00 100 1016.7
20260901162708 148 118 0.0 2.6 0.00 0.00 0.00 100 1016.9
20260901162158 148 113 0.0 2.6 0.00 0.00 0.00 100 1017.0
20260901161633 148 113 0.9 3.5 0.00 0.00 0.00 100 1017.1
20260901161111 148 157 0.0 5.2 0.00 0.00 0.00 100 1017.1
20260901160547 148 157 1.7 5.2 0.00 0.00 0.00 100 1017.1
20260901160042 148 345 0.0 2.6 0.00 0.00 0.00 100 1017.0
20260901155536 147 104 0.0 4.3 0.00 0.00 0.00 100 1017.0
20260901155035 147 104 0.0 4.3 0.00 0.00 0.00 100 1017.0
20260901154508 147 188 0.0 3.5 0.00 0.00 0.00 100 1017.0
20260901154222 147 168 2.6 3.5 0.00 0.00 0.00 100 1017.0
20260901153429 147 4 0.0 0.9 0.00 0.00 0.00 100 1017.0
20260901153137 147 18 0.0 0.0 0.00 0.00 0.00 100 1017.0
20260901152357 147 18 0.0 4.3 0.00 0.00 0.00 100 1017.0
20260901151852 147 18 0.0 4.3 0.00 0.00 0.00 100 1016.9
20260901151347 146 336 0.9 3.5 0.00 0.00 0.00 100 1016.9
20260901150846 146 213 0.0 4.3 0.00 0.00 0.00 100 1017.0
20260901150615 146 213 0.9 4.3 0.00 0.00 0.00 100 1016.9
20260901150450 146 302 0.0 3.5 0.00 0.00 0.00 100 1017.0
20260901145604 145 289 0.0 2.6 0.00 0.00 0.00 100 1016.9
20260901145043 145 289 0.9 2.6 0.00 0.00 0.00 100 1016.9
20260901144307 145 295 0.0 1.7 0.00 0.00 0.00 100 1017.0
20260901143743 145 320 0.0 0.0 0.00 0.00 0.00 100 1017.0
20260901143240 145 320 0.0 0.0 0.00 0.00 0.00 100 1017.0
20260901142723 145 320 0.0 0.0 0.00 0.00 0.00 100 1017.0
20260901142203 145 320 0.0 2.6 0.00 0.00 0.00 100 1017.1
20260901141700 145 320 0.0 4.3 0.00 0.00 0.00 100 1017.2
20260901141157 145 315 0.0 4.3 0.00 0.00 0.00 100 1017.2
20260901140656 145 119 0.9 4.3 0.00 0.00 0.00 100 1017.2
20260901140158 145 1 2.6 4.3 0.00 0.00 0.00 100 1017.2
20260901135652 145 147 0.0 4.3 0.00 0.00 0.00 100 1017.2
20260901135145 144 153 1.7 4.3 0.00 0.00 0.00 100 1017.2
20260901134641 144 2 0.9 4.3 0.00 0.00 0.00 100 1017.1
20260901134401 144 188 0.0 4.3 0.00 0.00 0.00 100 1017.0
20260901133630 144 142 0.0 4.3 0.00 0.00 0.00 100 1017.0
20260901133131 144 223 0.0 2.6 0.00 0.00 0.00 100 1016.9
20260901132858 144 219 0.0 3.5 0.00 0.00 0.00 100 1016.8
20260901132126 144 219 1.7 3.5 0.00 0.00 0.00 100 1016.8
20260901131612 143 180 0.0 0.0 0.00 0.00 0.00 1 1016.9
20260901131108 143 180 0.0 0.0 0.00 0.00 0.00 4 1016.8
20260901130806 143 180 0.0 0.0 0.00 0.00 0.00 11 1016.8
20260901130037 143 180 0.0 0.0 0.00 0.00 0.00 19 1016.7
20260901125526 143 180 0.0 0.0 0.00 0.00 0.00 19 1016.6
20260901125258 143 180 0.0 0.0 0.00 0.00 0.00 18 1016.6
20260901124755 143 180 0.0 0.0 0.00 0.00 0.00 17 1016.6
20260901124005 143 180 0.0 0.0 0.00 0.00 0.00 13 1016.5
20260901123459 143 180 0.0 0.0 0.00 0.00 0.00 10 1016.5
20260901122959 143 180 0.0 0.0 0.00 0.00 0.00 7 1016.5
20260901122718 143 180 0.0 0.0 0.00 0.00 0.00 7 1016.4
20260901121924 143 180 0.0 0.0 0.00 0.00 0.00 6 1016.4
20260901121633 143 180 0.0 0.0 0.00 0.00 0.00 5 1016.3
20260901120856 143 180 0.0 0.0 0.00 0.00 0.00 4 1016.3
20260901120349 143 180 0.0 0.0 0.00 0.00 0.00 4 1016.3
20260901120112 143 180 0.0 0.0 0.00 0.00 0.00 3 1016.3
20260901115342 143 180 0.0 0.0 0.00 0.00 0.00 2 1016.4
20260901115058 143 180 0.0 0.0 0.00 0.00 0.00 2 1016.3
20260901114328 143 180 0.0 0.0 0.00 0.00 0.00 1 1016.3
20260901113819 143 180 0.0 0.0 0.00 0.00 0.00 100 1016.3
20260901113545 143 180 0.0 0.0 0.00 0.00 0.00 100 1016.3
20260901112813 143 180 0.0 0.0 0.00 0.00 0.00 100 1016.3
20260901112531 143 180 0.0 0.0 0.00 0.00 0.00 100 1016.2
20260901111739 143 180 0.0 0.0 0.00 0.00 0.00 100 1016.2
20260901111217 143 180 0.0 0.0 0.00 0.00 0.00 100 1016.1
20260901110715 143 180 0.0 0.0 0.00 0.00 0.00 100 1016.1
20260901110211 143 180 0.0 2.6 0.00 0.00 0.00 100 1016.2
20260901105701 143 180 0.0 2.6 0.00 0.00 0.00 100 1016.2
20260901105159 143 203 0.0 0.0 0.00 0.00 0.00 100 1016.1
20260901104659 143 203 0.0 2.6 0.00 0.00 0.00 100 1016.1
20260901104150 143 203 0.0 2.6 0.00 0.00 0.00 100 1016.1
20260901103648 143 230 0.0 0.0 0.00 0.00 0.00 100 1016.0
20260901103128 143 230 0.0 3.5 0.00 0.00 0.00 100 1016.0
20260901102603 143 230 0.9 3.5 0.00 0.00 0.00 100 1016.0
20260901102329 143 192 0.0 0.0 0.00 0.00 0.00 100 1016.0
20260901101557 143 192 0.0 0.0 0.00 0.00 0.00 100 1015.9
20260901101043 143 192 0.0 0.0 0.00 0.00 0.00 100 1015.9
20260901100519 143 192 0.0 0.0 0.00 0.00 0.00 100 1015.9
20260901095958 143 192 0.0 0.0 0.00 0.00 0.00 100 1015.9
20260901095442 144 192 0.0 0.0 0.00 0.00 0.00 100 1016.0
20260901094929 144 192 0.0 0.0 0.00 0.00 0.00 100 1016.1
20260901094659 143 192 0.0 0.0 0.00 0.00 0.00 100 1016.1
20260901093911 144 192 0.0 1.7 0.00 0.00 0.00 100 1016.2
20260901093409 144 192 0.0 1.7 0.00 0.00 0.00 100 1016.3
20260901092833 144 160 0.0 0.0 0.00 0.00 0.00 100 1016.3
20260901092311 144 160 0.0 0.0 0.00 0.00 0.00 100 1016.3
20260901091759 144 160 0.0 0.0 0.00 0.00 0.00 100 1016.2
20260901091238 144 160 0.0 0.0 0.00 0.00 0.00 100 1016.3
20260901090715 144 160 0.0 0.0 0.00 0.00 0.00 100 1016.2
20260901090447 144 160 0.0 0.0 0.00 0.00 0.00 100 1016.1
20260901085701 144 160 0.0 0.0 0.00 0.00 0.00 100 1016.1
20260901085156 144 160 0.0 0.0 0.00 0.00 0.00 100 1016.0
20260901084637 144 160 0.0 0.0 0.00 0.00 0.00 100 1016.0
20260901084134 144 160 0.0 0.0 0.00 0.00 0.00 100 1016.1
20260901083616 144 160 0.0 0.0 0.00 0.00 0.00 100 1016.1
20260901083114 144 160 0.0 0.0 0.00 0.00 0.00 100 1016.0
20260901082612 144 160 0.0 0.0 0.00 0.00 0.00 100 1016.0
20260901082110 144 160 0.0 0.0 0.00 0.00 0.00 100 1016.1
20260901081552 144 160 0.0 0.0 0.00 0.00 0.00 100 1016.1
20260901081034 144 160 0.0 0.0 0.00 0.00 0.00 100 1016.1
20260901080534 144 160 0.0 0.0 0.00 0.00 0.00 100 1016.2
20260901080020 144 160 0.0 0.0 0.00 0.00 0.00 100 1016.2
20260901075516 144 160 0.0 0.0 0.00 0.00 0.00 100 1016.2
20260901074944 144 160 0.0 0.0 0.00 0.00 0.00 100 1016.2
20260901074702 144 160 0.0 0.0 0.00 0.00 0.00 100 1016.2
20260901073926 144 160 0.0 0.0 0.00 0.00 0.00 100 1016.2
20260901073427 144 160 0.0 0.0 0.00 0.00 0.00 100 1016.3
20260901072857 144 160 0.0 2.6 0.00 0.00 0.00 100 1016.2
20260901072349 144 160 0.0 2.6 0.00 0.00 0.00 100 1016.2
20260901072119 144 168 0.0 1.7 0.00 0.00 0.00 100 1016.2
20260901071343 144 168 0.0 1.7 0.00 0.00 0.00 100 1016.2
20260901070829 144 132 0.0 2.6 0.00 0.00 0.00 100 1016.2
20260901070537 144 132 0.0 2.6 0.00 0.00 0.00 100 1016.2
20260901070015 145 129 0.0 3.5 0.00 0.00 0.00 100 1016.2
20260901065233 145 160 0.0 0.0 0.00 0.00 0.00 100 1016.1
20260901064730 145 160 0.0 5.2 0.00 0.00 0.00 100 1016.1
20260901064726 145 160 0.0 0.0 0.00 0.00 0.00 100 1016.1
20260901063717 145 160 0.0 5.2 0.00 0.00 0.00 100 1016.0
20260901063215 145 208 0.0 4.3 0.00 0.00 0.00 100 1016.0
20260901062702 145 112 0.0 5.2 0.00 0.00 0.00 100 1016.0
20260901062147 145 156 1.7 5.2 0.00 0.00 0.00 100 1016.0
20260901061647 145 154 0.0 7.0 0.00 0.00 0.00 100 1015.9
20260901061145 145 158 4.3 7.0 0.00 0.00 0.00 100 1015.9
20260901060642 145 151 1.7 6.1 0.00 0.00 0.00 100 1015.8
20260901060143 145 132 0.9 7.8 0.00 0.00 0.00 100 1015.8
20260901055613 145 105 3.5 8.7 0.00 0.00 0.00 100 1015.7
20260901055104 145 181 0.9 7.0 0.00 0.00 0.00 100 1015.7
20260901054559 145 164 3.5 7.0 0.00 0.00 0.00 100 1015.7
20260901054057 145 146 0.0 5.2 0.00 0.00 0.00 100 1015.6
20260901053540 145 158 2.6 5.2 0.00 0.00 0.00 100 1015.6
20260901053247 145 154 0.9 7.8 0.00 0.00 0.00 100 1015.6
20260901052510 145 105 0.0 7.8 0.00 0.00 0.00 100 1015.6
20260901052000 145 178 0.0 7.8 0.00 0.00 0.00 100 1015.6
20260901051459 145 149 5.2 7.8 0.00 0.00 0.00 100 1015.4
20260901050959 145 181 0.0 7.0 0.00 0.00 0.00 100 1015.4
20260901050456 145 149 1.7 7.0 0.00 0.00 0.00 100 1015.3
20260901050227 145 130 3.5 7.0 0.00 0.00 0.00 100 1015.3
20260901045457 145 161 4.3 7.0 0.00 0.00 0.00 100 1015.3
20260901044956 145 105 0.9 7.0 0.00 0.00 0.00 100 1015.2
20260901044455 145 175 1.7 7.0 0.00 0.00 0.00 100 1015.2
20260901043956 145 135 1.7 7.0 0.00 0.00 0.00 100 1015.2
20260901043456 145 153 1.7 7.0 0.00 0.00 0.00 100 1015.1
20260901042956 145 185 0.0 5.2 0.00 0.00 0.00 100 1015.1
20260901042457 145 130 1.7 7.8 0.00 0.00 0.00 100 1015.1
20260901041955 146 130 0.0 7.8 0.00 0.00 0.00 100 1015.1
20260901041456 146 154 3.5 7.8 0.00 0.00 0.00 100 1015.1